SCP
0 0 0 0 0 0 0 0 0 0 0 0 0 0 0 0 0 0 0 0 0 0 0 0 0 0 0 0 0 0 0 0 0 0 0 0 0 0 0 0 0 0 0
0 0 0 0 0 0 0 0 0 0 0 0 0 0 0 0 0 0 0 0 0 0 0 0 0 0 0 0 0 0 0 0 0 0 0 0 0 0 0 0 0 0 0
0 0 0 0 0 0 0 0 0 0 0 0 0 0 0 0 0 0 0 0 0 0 0 0 0 0 0 0 0 0 0 0 0 0 0 0 0 0 0 0 0 0 0
0 0 0 0 0 0 0 0 0 0 0 0 0 0 0 0 0 0 0 0 0 0 0 0 0 0 0 0 0 0 0 0 0 0 0 0 0 0 0 0 0 0 0
0 0 0 0 0 0 0 0 0 0 0 0 0 0 0 0 0 0 0 0 0 0 0 0 0 0 0 0 0 0 0 0 0 0 0 0 0 0 0 0 0 0 0
0 0 0 0 0 0 0 0 0 0 0 0 0 0 0 0 0 0 0 0 0 0 0 0 0 0 0 0 0 0 0 0 0 0 0 0 0 0 0 0 0 0 0
0 0 0 0 0 0 0 0 0 0 0 0 0 0 0 0 0 0 0 0 0 0 0 0 0 0 0 0 0 0 0 0 0 0 0 0 0 0 0 0 0 0 0
0 0 0 0 0 0 0 0 0 0 0 0 0 0 0 0 0 0 0 0 0 0 0 0 0 0 0 0 0 0 0 0 0 0 0 0 0 0 0 0 0 0 0
0 0 0 0 0 0 0 0 0 0 0 0 0 0 0 0 0 0 0 0 0 0 0 0 0 0 0 0 0 0 0 0 0 0 0 0 0 0 0 0 0 0 0
0 0 0 0 0 0 0 0 0 0 0 0 0 0 0 0 0 0 0 0 0 0 0 0 0 0 0 0 0 0 0 0 0 0 0 0 0 0 0 0 0 0 0
0 0 0 0 0 0 0 0 0 0 0 0 0 0 0 0 0 0 0 0 0 0 0 0 0 0 0 0 0 0 0 0 0 0 0 0 0 0 0 0 0 0 0
0 0 0 0 0 0 0 0 0 0 0 0 0 0 0 0 0 0 0 0 0 0 0 0 0 0 0 0 0 0 0 0 0 0 0 0 0 0 0 0 0 0 0
0 0 0 0 0 0 0 0 0 0 0 0 0 0 0 0 0 0 0 0 0 0 0 -0 0 0 0 0 0 0 0 0 0 0 0 0 0 0 0 0 0 0 0
0 0 0 0 0 0 0 0 0 0 0 0 0 0 0 0 0 0 0 0 0 0 0 -0 -0 0 0 0 0 0 0 0 0 0 0 0 0 0 0 0 0 0 0
0 0 0 0 0 0 0 0 0 0 0 0 0 0 0 0 0 0 0 0 0 0 0 0 0 0 0 0 0 0 0 0 0 0 0 0 0 0 0 0 0 0 0
0 0 0 0 0 0 0 0 0 0 0 0 0 0 0 0 0 0 0 0 0 0 0 0 0 0 0 0 0 0 0 0 0 0 0 0 0 0 0 0 0 0 0
0 0 0 0 0 0 0 0 0 0 0 0 0 0 0 0 0 0 0 0 0 0 0 0 0 0 0 0 0 0 0 0 0 0 0 0 0 0 0 0 0 0 0
0 0 0 0 0 0 0 0 0 0 0 0 0 0 0 0 0 0 0 0 0 0 0 0 0 0 0 0 0 0 0 0 0 0 -0 0 0 0 0 0 0 0 0
0 0 0 0 0 0 0 0 0 0 0 0 0 0 0 0 0 0 0 0 0 0 0 0 0 0 0 0 0 0 0 0 0 -0 0 -0 0 0 0 0 0 0 0
0 0 0 0 0 0 0 0 0 0 0 0 0 0 0 0 0 0 0 0 0 0 0 0 0 0 0 0 0 0 0 0 0 0 0 -0 -0 0 0 0 0 0 0
0 0 0 0 0 0 0 0 0 0 0 0 0 0 0 0 0 0 0 0 0 0 0 0 0 0 0 0 0 0 0 0 0 0 0 0 0 0 0 0 0 0 0
0 0 0 0 0 0 0 0 0 0 0 0 0 0 0 0 0 0 0 0 0 0 0 0 0 0 0 0 0 0 0 0 0 0 0 0 0 0 0 0 0 0 0
0 0 0 0 0 0 0 0 0 0 0 0 0 0 0 0 0 0 0 0 0 0 0 0 0 0 0 0 0 0 0 0 0 0 0 0 0 0 0 0 0 0 0
0 0 0 0 0 0 0 0 0 0 0 0 0 0 0 0 0 0 0 0 0 0 0 0 0 0 0 0 0 0 0 0 0 0 0 0 0 0 0 0 0 0 0
0 0 0 0 0 0 0 0 0 0 0 0 0 0 0 0 0 0 0 0 0 0 0 0 0 0 0 0 0 0 0 0 0 0 0 -0 0 -0 -0 0 0 0 0
0 0 0 0 0 0 0 0 0 0 0 0 0 0 0 0 0 0 0 0 0 0 0 0 0 0 0 0 0 0 0 0 0 0 0 0 0 -0 -0 0 0 0 0
Wind_Speed_500mb
33 25 19 15 10 7 1 0 0 3 4 3 3 7 11 12 11 11 14 14 14 14 15 17 18 19 18 18 19 19 17 12 20 27 38 44 43 44 34 33 31 31 31
35 31 24 16 12 11 4 5 12 6 3 2 4 6 10 9 10 10 13 16 18 19 20 21 22 22 22 21 22 23 25 26 24 14 20 27 38 42 46 39 43 39 35
37 30 24 20 17 16 15 15 12 8 6 2 4 6 6 7 8 10 13 17 19 21 24 27 28 29 29 29 30 30 29 30 32 25 32 31 28 32 47 46 46 48 44
33 29 26 23 20 20 16 10 8 4 2 3 4 2 3 3 4 8 13 15 18 21 25 29 31 30 30 32 31 33 34 32 32 35 37 41 30 25 21 34 47 47 53
33 26 21 18 15 12 12 7 1 6 7 8 6 9 10 7 8 12 13 16 19 22 25 28 31 32 32 31 32 32 33 34 38 42 42 46 42 44 36 29 27 35 52
26 23 22 21 17 12 11 8 8 12 10 14 14 13 11 9 8 7 12 15 22 27 33 35 37 38 40 39 38 35 34 35 38 38 39 43 45 44 53 50 45 40 37
27 25 26 23 21 19 15 13 11 11 13 13 12 14 13 6 4 7 10 19 28 37 41 42 43 44 44 45 42 43 43 41 41 42 44 43 43 47 47 53 54 58 39
32 30 28 26 23 18 14 11 8 6 14 12 7 10 11 7 9 19 14 22 35 39 41 42 43 44 46 47 49 48 48 49 51 52 53 52 50 49 48 52 57 74 76
37 32 28 24 20 14 9 7 7 7 9 11 11 5 3 3 17 9 12 29 37 39 41 43 46 48 49 50 49 49 52 56 58 59 61 60 62 63 61 59 57 60 77
38 31 26 21 14 10 8 8 11 14 17 16 15 16 14 15 12 13 23 33 38 41 42 43 45 48 48 49 52 54 57 60 64 69 71 71 72 74 73 69 67 65 60
37 30 23 17 13 12 11 14 17 18 18 17 15 13 13 14 19 23 28 44 38 39 40 42 44 46 50 55 59 62 63 66 67 68 71 76 78 78 78 74 72 67 66
38 30 23 17 15 12 13 13 17 17 17 17 17 16 16 18 21 25 34 43 47 47 41 37 43 48 54 56 57 64 70 75 79 82 80 76 75 79 78 76 72 67 62
37 30 23 17 13 9 9 11 13 16 17 17 18 19 19 20 22 26 33 40 50 53 53 51 48 50 57 63 71 76 77 79 82 85 87 86 82 76 75 73 67 64 63
35 30 23 17 10 5 4 7 11 13 14 14 15 16 18 21 25 30 34 42 53 58 59 56 58 66 71 72 74 79 87 89 86 84 84 84 82 80 73 67 66 65 65
35 31 25 17 11 6 1 5 7 6 6 8 11 15 19 23 26 30 34 38 42 45 64 57 67 70 78 86 89 89 86 87 89 87 79 77 77 71 63 61 60 59 58
37 31 26 20 14 8 2 2 2 2 4 7 12 16 19 22 26 30 34 36 39 44 48 70 73 76 82 88 91 90 86 80 79 81 82 75 68 65 64 62 61 60 62
37 33 29 24 18 11 6 4 2 1 3 8 13 17 21 24 27 31 35 38 40 44 55 67 70 78 86 89 87 88 90 89 82 75 78 71 66 64 63 63 59 59 59
42 37 34 27 20 15 10 6 5 4 5 10 15 20 24 27 31 34 37 40 43 45 51 64 72 81 87 87 89 93 94 94 94 85 82 73 71 66 63 61 62 62 60
46 44 38 30 25 20 14 11 10 9 11 15 19 23 27 31 34 37 39 42 44 46 51 63 76 82 87 88 93 96 98 96 94 92 87 81 71 64 65 65 63 59 61
50 47 41 37 31 23 18 16 16 15 15 20 25 28 31 34 36 38 40 42 45 48 53 63 73 83 85 87 88 90 104 95 96 92 89 84 68 75 74 68 63 64 61
54 50 46 42 36 28 23 20 21 19 21 24 28 32 34 35 36 38 41 42 44 49 55 62 70 76 83 90 89 86 90 93 89 75 98 93 94 94 83 74 65 58 55
60 57 52 46 38 31 27 24 27 24 27 28 31 35 37 38 38 39 42 43 45 49 53 58 63 68 80 83 78 80 78 100 102 95 91 104 87 82 76 70 60 58 58
64 60 53 51 42 37 31 32 31 29 31 32 36 38 39 40 40 41 42 45 47 48 51 46 61 64 77 67 70 87 87 88 93 97 87 89 84 78 78 68 60 59 58
65 58 59 53 48 41 39 40 36 35 36 38 40 41 43 44 43 45 46 50 51 53 57 55 60 67 58 61 67 73 76 81 85 87 74 76 82 74 73 80 72 59 50
66 61 67 59 52 46 47 45 44 44 42 43 44 44 46 48 47 48 50 53 55 57 55 58 65 63 62 63 62 67 69 74 87 92 77 54 74 86 81 80 66 40 48
65 74 68 62 54 54 52 52 53 52 50 48 47 49 50 52 51 51 51 50 57 56 57 69 70 67 63 61 57 57 59 66 73 84 64 74 75 72 70 69 67 72 65
Wind_Direction_500mb
200 205 215 211 224 226 220 184 20 258 55 139 32 36 32 33 28 26 27 22 19 7 355 351 348 344 336 325 311 301 290 304 315 335 329 333 325 318 325 329 330 320 302
204 217 221 215 204 202 226 268 298 293 253 290 20 7 360 1 2 2 3 0 359 357 356 354 350 343 333 324 321 313 310 304 308 310 349 341 320 321 322 318 322 325 320
210 211 209 207 202 216 206 242 252 228 252 252 337 337 354 13 4 358 1 3 4 4 4 1 357 352 345 340 333 326 328 324 307 274 284 280 300 316 312 312 311 315 315
203 202 202 198 208 207 222 220 251 289 147 225 279 326 354 354 4 360 11 18 21 18 12 11 7 5 359 352 342 334 341 352 347 314 284 270 282 286 302 296 300 310 308
198 196 194 193 188 182 187 192 200 97 110 119 119 106 100 91 58 47 44 35 29 19 12 7 1 356 353 355 355 352 343 334 323 317 316 304 282 271 273 288 284 291 295
182 182 182 179 180 184 184 172 127 100 103 93 106 116 103 87 74 48 30 21 11 360 354 350 346 344 342 342 343 342 338 339 346 346 321 304 302 292 273 270 273 280 277
176 181 182 175 161 154 149 134 113 94 97 104 116 114 120 117 17 359 350 348 349 351 349 346 345 341 338 335 331 329 328 327 328 331 333 328 312 292 288 277 270 266 276
173 168 165 159 151 153 142 137 133 117 102 110 159 187 183 227 310 308 313 339 344 347 346 349 347 344 343 339 338 334 328 324 320 319 316 311 309 308 299 281 272 270 277
166 164 159 155 145 131 132 115 83 65 64 65 66 96 234 228 316 262 304 336 345 351 353 352 350 348 347 344 341 337 333 328 323 319 314 310 307 304 303 301 293 274 269
162 160 159 147 142 140 127 104 70 52 45 34 23 23 19 3 351 321 320 338 352 353 356 353 350 349 348 346 342 339 336 332 327 321 317 313 308 306 302 298 296 295 290
163 160 154 157 150 127 99 68 55 44 37 34 27 25 8 358 348 338 329 335 339 349 353 350 348 345 343 341 338 336 333 329 326 324 320 315 312 307 303 301 298 296 294
165 161 164 152 130 105 74 47 30 20 16 20 26 23 15 12 356 347 336 335 337 344 348 350 344 343 340 338 336 330 329 328 325 323 320 316 312 307 304 301 301 301 300
167 168 159 147 128 95 55 28 17 17 25 24 25 18 11 4 353 345 339 334 334 336 339 345 343 341 338 336 334 331 329 325 322 319 317 315 312 307 303 303 305 303 300
175 167 162 155 144 116 46 26 24 23 26 20 18 12 5 358 350 343 340 337 334 330 332 339 341 339 337 335 333 329 327 325 322 319 316 313 310 307 304 304 307 307 302
177 173 170 173 172 183 136 30 24 28 37 29 16 6 354 348 343 337 333 333 330 325 327 332 334 334 332 331 330 328 326 324 322 321 318 313 310 310 311 306 300 302 302
180 179 183 184 189 190 167 30 358 49 51 27 8 356 348 340 335 329 328 327 324 322 317 322 327 328 328 328 326 327 327 326 323 321 318 316 312 315 313 311 306 302 295
188 191 191 195 196 195 199 221 197 128 28 2 358 350 344 336 331 326 323 319 317 315 313 315 320 322 324 323 325 326 328 328 328 324 320 320 317 314 311 310 309 306 300
194 196 196 199 201 204 212 222 213 239 301 328 340 340 337 331 327 323 318 314 311 311 310 312 317 321 322 323 326 327 329 329 330 329 325 319 316 312 310 308 305 303 301
197 197 204 209 210 211 218 226 226 257 295 313 322 324 325 325 323 318 312 307 308 309 310 312 316 321 322 327 327 329 329 328 327 328 324 324 319 313 312 307 304 299 299
203 205 210 214 215 217 222 228 239 256 278 299 309 311 315 318 316 311 306 305 306 307 310 313 318 322 324 328 329 326 324 327 326 329 325 324 313 312 310 309 306 302 302
208 213 215 215 216 220 229 237 246 260 279 291 295 298 305 309 307 302 301 304 304 305 311 315 319 319 323 325 328 326 323 325 322 319 313 309 312 316 313 315 315 312 310
212 216 218 218 220 226 233 243 247 263 275 283 287 291 298 302 302 300 300 299 300 305 309 312 315 315 318 323 326 325 316 315 317 323 317 315 318 317 317 318 313 307 305
218 221 222 223 225 229 235 243 247 257 270 280 282 286 293 297 295 295 294 294 296 299 305 305 308 314 318 323 318 314 317 315 314 318 319 317 320 313 317 312 308 308 309
224 227 231 227 230 231 243 242 247 256 268 276 279 284 292 294 294 294 293 293 295 302 308 311 310 313 313 309 311 312 312 313 313 320 326 307 320 316 309 308 309 312 307
227 241 234 231 233 239 243 245 249 257 265 272 277 284 289 293 292 289 288 291 297 301 306 303 302 307 312 314 314 312 316 319 322 323 331 325 319 318 319 319 325 320 311
243 243 233 235 239 242 245 247 250 259 264 271 277 283 286 288 286 284 285 288 290 299 301 301 309 309 311 312 313 312 318 320 323 323 323 323 321 320 319 321 314 320 324
Wind_Speed_850mb
33 25 19 15 10 7 1 0 0 3 4 3 3 7 11 12 11 11 14 14 14 14 15 17 18 19 18 18 19 19 17 12 20 27 38 44 43 44 34 33 31 31 31
35 31 24 16 12 11 4 5 12 6 3 2 4 6 10 9 10 10 13 16 18 19 20 21 22 22 22 21 22 23 25 26 24 14 20 27 38 42 46 39 43 39 35
37 30 24 20 17 16 15 15 12 8 6 2 4 6 6 7 8 10 13 17 19 21 24 27 28 29 29 29 30 30 29 30 32 25 32 31 28 32 47 46 46 48 44
33 29 26 23 20 20 16 10 8 4 2 3 4 2 3 3 4 8 13 15 18 21 25 29 31 30 30 32 31 33 34 32 32 35 37 41 30 25 21 34 47 47 53
33 26 21 18 15 12 12 7 1 6 7 8 6 9 10 7 8 12 13 16 19 22 25 28 31 32 32 31 32 32 33 34 38 42 42 46 42 44 36 29 27 35 52
26 23 22 21 17 12 11 8 8 12 10 14 14 13 11 9 8 7 12 15 22 27 33 35 37 38 40 39 38 35 34 35 38 38 39 43 45 44 53 50 45 40 37
27 25 26 23 21 19 15 13 11 11 13 13 12 14 13 6 4 7 10 19 28 37 41 42 43 44 44 45 42 43 43 41 41 42 44 43 43 47 47 53 54 58 39
32 30 28 26 23 18 14 11 8 6 14 12 7 10 11 7 9 19 14 22 35 39 41 42 43 44 46 47 49 48 48 49 51 52 53 52 50 49 48 52 57 74 76
37 32 28 24 20 14 9 7 7 7 9 11 11 5 3 3 17 9 12 29 37 39 41 43 46 48 49 50 49 49 52 56 58 59 61 60 62 63 61 59 57 60 77
38 31 26 21 14 10 8 8 11 14 17 16 15 16 14 15 12 13 23 33 38 41 42 43 45 48 48 49 52 54 57 60 64 69 71 71 72 74 73 69 67 65 60
37 30 23 17 13 12 11 14 17 18 18 17 15 13 13 14 19 23 28 44 38 39 40 42 44 46 50 55 59 62 63 66 67 68 71 76 78 78 78 74 72 67 66
38 30 23 17 15 12 13 13 17 17 17 17 17 16 16 18 21 25 34 43 47 47 41 37 43 48 54 56 57 64 70 75 79 82 80 76 75 79 78 76 72 67 62
37 30 23 17 13 9 9 11 13 16 17 17 18 19 19 20 22 26 33 40 50 53 53 51 48 50 57 63 71 76 77 79 82 85 87 86 82 76 75 73 67 64 63
35 30 23 17 10 5 4 7 11 13 14 14 15 16 18 21 25 30 34 42 53 58 59 56 58 66 71 72 74 79 87 89 86 84 84 84 82 80 73 67 66 65 65
35 31 25 17 11 6 1 5 7 6 6 8 11 15 19 23 26 30 34 38 42 45 64 57 67 70 78 86 89 89 86 87 89 87 79 77 77 71 63 61 60 59 58
37 31 26 20 14 8 2 2 2 2 4 7 12 16 19 22 26 30 34 36 39 44 48 70 73 76 82 88 91 90 86 80 79 81 82 75 68 65 64 62 61 60 62
37 33 29 24 18 11 6 4 2 1 3 8 13 17 21 24 27 31 35 38 40 44 55 67 70 78 86 89 87 88 90 89 82 75 78 71 66 64 63 63 59 59 59
42 37 34 27 20 15 10 6 5 4 5 10 15 20 24 27 31 34 37 40 43 45 51 64 72 81 87 87 89 93 94 94 94 85 82 73 71 66 63 61 62 62 60
46 44 38 30 25 20 14 11 10 9 11 15 19 23 27 31 34 37 39 42 44 46 51 63 76 82 87 88 93 96 98 96 94 92 87 81 71 64 65 65 63 59 61
50 47 41 37 31 23 18 16 16 15 15 20 25 28 31 34 36 38 40 42 45 48 53 63 73 83 85 87 88 90 104 95 96 92 89 84 68 75 74 68 63 64 61
54 50 46 42 36 28 23 20 21 19 21 24 28 32 34 35 36 38 41 42 44 49 55 62 70 76 83 90 89 86 90 93 89 75 98 93 94 94 83 74 65 58 55
60 57 52 46 38 31 27 24 27 24 27 28 31 35 37 38 38 39 42 43 45 49 53 58 63 68 80 83 78 80 78 100 102 95 91 104 87 82 76 70 60 58 58
64 60 53 51 42 37 31 32 31 29 31 32 36 38 39 40 40 41 42 45 47 48 51 46 61 64 77 67 70 87 87 88 93 97 87 89 84 78 78 68 60 59 58
65 58 59 53 48 41 39 40 36 35 36 38 40 41 43 44 43 45 46 50 51 53 57 55 60 67 58 61 67 73 76 81 85 87 74 76 82 74 73 80 72 59 50
66 61 67 59 52 46 47 45 44 44 42 43 44 44 46 48 47 48 50 53 55 57 55 58 65 63 62 63 62 67 69 74 87 92 77 54 74 86 81 80 66 40 48
65 74 68 62 54 54 52 52 53 52 50 48 47 49 50 52 51 51 51 50 57 56 57 69 70 67 63 61 57 57 59 66 73 84 64 74 75 72 70 69 67 72 65
Wind_Direction_850mb
200 205 215 211 224 226 220 184 20 258 55 139 32 36 32 33 28 26 27 22 19 7 355 351 348 344 336 325 311 301 290 304 315 335 329 333 325 318 325 329 330 320 302
204 217 221 215 204 202 226 268 298 293 253 290 20 7 360 1 2 2 3 0 359 357 356 354 350 343 333 324 321 313 310 304 308 310 349 341 320 321 322 318 322 325 320
210 211 209 207 202 216 206 242 252 228 252 252 337 337 354 13 4 358 1 3 4 4 4 1 357 352 345 340 333 326 328 324 307 274 284 280 300 316 312 312 311 315 315
203 202 202 198 208 207 222 220 251 289 147 225 279 326 354 354 4 360 11 18 21 18 12 11 7 5 359 352 342 334 341 352 347 314 284 270 282 286 302 296 300 310 308
198 196 194 193 188 182 187 192 200 97 110 119 119 106 100 91 58 47 44 35 29 19 12 7 1 356 353 355 355 352 343 334 323 317 316 304 282 271 273 288 284 291 295
182 182 182 179 180 184 184 172 127 100 103 93 106 116 103 87 74 48 30 21 11 360 354 350 346 344 342 342 343 342 338 339 346 346 321 304 302 292 273 270 273 280 277
176 181 182 175 161 154 149 134 113 94 97 104 116 114 120 117 17 359 350 348 349 351 349 346 345 341 338 335 331 329 328 327 328 331 333 328 312 292 288 277 270 266 276
173 168 165 159 151 153 142 137 133 117 102 110 159 187 183 227 310 308 313 339 344 347 346 349 347 344 343 339 338 334 328 324 320 319 316 311 309 308 299 281 272 270 277
166 164 159 155 145 131 132 115 83 65 64 65 66 96 234 228 316 262 304 336 345 351 353 352 350 348 347 344 341 337 333 328 323 319 314 310 307 304 303 301 293 274 269
162 160 159 147 142 140 127 104 70 52 45 34 23 23 19 3 351 321 320 338 352 353 356 353 350 349 348 346 342 339 336 332 327 321 317 313 308 306 302 298 296 295 290
163 160 154 157 150 127 99 68 55 44 37 34 27 25 8 358 348 338 329 335 339 349 353 350 348 345 343 341 338 336 333 329 326 324 320 315 312 307 303 301 298 296 294
165 161 164 152 130 105 74 47 30 20 16 20 26 23 15 12 356 347 336 335 337 344 348 350 344 343 340 338 336 330 329 328 325 323 320 316 312 307 304 301 301 301 300
167 168 159 147 128 95 55 28 17 17 25 24 25 18 11 4 353 345 339 334 334 336 339 345 343 341 338 336 334 331 329 325 322 319 317 315 312 307 303 303 305 303 300
175 167 162 155 144 116 46 26 24 23 26 20 18 12 5 358 350 343 340 337 334 330 332 339 341 339 337 335 333 329 327 325 322 319 316 313 310 307 304 304 307 307 302
177 173 170 173 172 183 136 30 24 28 37 29 16 6 354 348 343 337 333 333 330 325 327 332 334 334 332 331 330 328 326 324 322 321 318 313 310 310 311 306 300 302 302
180 179 183 184 189 190 167 30 358 49 51 27 8 356 348 340 335 329 328 327 324 322 317 322 327 328 328 328 326 327 327 326 323 321 318 316 312 315 313 311 306 302 295
188 191 191 195 196 195 199 221 197 128 28 2 358 350 344 336 331 326 323 319 317 315 313 315 320 322 324 323 325 326 328 328 328 324 320 320 317 314 311 310 309 306 300
194 196 196 199 201 204 212 222 213 239 301 328 340 340 337 331 327 323 318 314 311 311 310 312 317 321 322 323 326 327 329 329 330 329 325 319 316 312 310 308 305 303 301
197 197 204 209 210 211 218 226 226 257 295 313 322 324 325 325 323 318 312 307 308 309 310 312 316 321 322 327 327 329 329 328 327 328 324 324 319 313 312 307 304 299 299
203 205 210 214 215 217 222 228 239 256 278 299 309 311 315 318 316 311 306 305 306 307 310 313 318 322 324 328 329 326 324 327 326 329 325 324 313 312 310 309 306 302 302
208 213 215 215 216 220 229 237 246 260 279 291 295 298 305 309 307 302 301 304 304 305 311 315 319 319 323 325 328 326 323 325 322 319 313 309 312 316 313 315 315 312 310
212 216 218 218 220 226 233 243 247 263 275 283 287 291 298 302 302 300 300 299 300 305 309 312 315 315 318 323 326 325 316 315 317 323 317 315 318 317 317 318 313 307 305
218 221 222 223 225 229 235 243 247 257 270 280 282 286 293 297 295 295 294 294 296 299 305 305 308 314 318 323 318 314 317 315 314 318 319 317 320 313 317 312 308 308 309
224 227 231 227 230 231 243 242 247 256 268 276 279 284 292 294 294 294 293 293 295 302 308 311 310 313 313 309 311 312 312 313 313 320 326 307 320 316 309 308 309 312 307
227 241 234 231 233 239 243 245 249 257 265 272 277 284 289 293 292 289 288 291 297 301 306 303 302 307 312 314 314 312 316 319 322 323 331 325 319 318 319 319 325 320 311
243 243 233 235 239 242 245 247 250 259 264 271 277 283 286 288 286 284 285 288 290 299 301 301 309 309 311 312 313 312 318 320 323 323 323 323 321 320 319 321 314 320 324